Location: Unspecified
(0.0000°N, 0.0000°E)
Time: 19:46:58
(UTC+00:00)

Vanguard 3 - Pass Details

Date: 29 September 2023
Orbit: 507 x 3241 km, 33.3° (Epoch: 29 November)

Event Time Altitude Azimuth Distance (km) Brightness Sun altitude
Rises 13:58:37 0° 233° (SW) 6,914 12.3 57.9°
Reaches altitude 10° 14:03:00 10° 232° (SW) 6,050 12.2 56.8°
Maximum altitude 14:23:12 87° 143° (SE) 3,077 11.0 51.7°
Drops below altitude 10° 14:39:02 10° 55° (NE) 4,925 10.9 47.8°
Sets 14:42:12 0° 55° (NE) 5,634 11.1 47.0°
